Overview Statistics Trail Chart Weather Telemetry Raw packets
 

This is the latest recevied weather packets stored in our database for station/object KK4MOR. If no packets are shown the sender has not sent any weather packets the latest 10 day(s).

<< 4 5 6 7 8 9 10 >>
Time Temp. Humidity Pressure Rain* Wind** Luminosity Snow
1788487239 25.56° C 87% 1012.8 hPa 0 mm - - -
1788486326 25.56° C 87% 1012.7 hPa 0 mm - - -
1788485426 26.11° C 86% 1012.7 hPa 0 mm - - -
1788484524 26.11° C 85% 1012.6 hPa 0 mm - - -
1788483622 26.11° C 84% 1012.6 hPa 0 mm - - -
1788482719 26.11° C 82% 1012.2 hPa 0 mm - - -
1788481818 27.22° C 82% 1011.9 hPa 0 mm - - -
1788480916 27.22° C 82% 1011.8 hPa 0 mm - - -
1788480017 27.78° C 79% 1011.8 hPa 0 mm - - -
1788479115 27.78° C 78% 1011.8 hPa 0 mm - - -
1788478217 28.33° C 76% 1011.7 hPa 0 mm - - -
1788477313 28.89° C 74% 1011.5 hPa 0 mm - - -
1788476413 29.44° C 72% 1011.4 hPa 0 mm - - -
1788475512 31.11° C 69% 1011.4 hPa 0 mm - - -
1788474620 33.33° C 63% 1011.3 hPa 0 mm - - -
1788473711 35° C 58% 1011.3 hPa 0 mm - - -
1788472811 36.11° C 52% 1011.2 hPa 0 mm - - -
1788471913 36.11° C 48% 1011.3 hPa 0 mm - - -
1788471007 36.67° C 48% 1011.4 hPa 0 mm - - -
1788470103 36.67° C 50% 1011.6 hPa 0 mm - - -
1788469202 36.67° C 47% 1011.6 hPa 0 mm - - -
1788468365 36.67° C 46% 1011.7 hPa 0 mm - - -
1788467458 36.67° C 47% 1011.9 hPa 0 mm - - -
1788466556 36.67° C 49% 1012 hPa 0 mm - - -
1788465661 36.11° C 47% 1012.2 hPa 0 mm - - -

* Rain latest hour (hover to see other rain measurements)
** Current wind speed in m/s (hover to see current wind gust speed)